Tracking 18980 objects as of 23-Feb-2018
HD Live streaming from Space Station
objects crossing your sky now

FENGYUN 1C DEB

Track FENGYUN 1C DEB now!
10-day predictions


NORAD ID: 38158
Int'l Code: 1999-025ERF
Perigee: 852.9 km
Apogee: 1,182.1 km
Inclination: 99.6 °
Period: 105.3 minutes
Semi major axis: 7388 km
RCS: 0.0057 m2 (small)
Launch date: May 10, 1999
Source: People's Republic of China (PRC)
Launch site: Taiyaun Space Center, China (TSC)

Note: This is SATELLITE DEBRIS
aabbcc
Your satellite tracking list
Your tracking list is empty




NASA's NSSDC Master Catalog

Two Line Element Set (TLE):
1 38158U 99025ERF 18053.36797725 +.00000324 +00000-0 +37320-3 0  9990
2 38158 099.5599 107.5524 0222779 262.1750 095.4053 13.66993176422666
Source of the keplerian elements: AFSPC